Home > Weather > Ushuaia > Past weeks

Flag for Argentina Weather for the Past 2 Weeks in Ushuaia, Tierra del Fuego, Argentina

Now
43 °F

Scattered clouds.


Feels Like: 31 °F
Forecast: 34 / 41 °F
Wind: 36 mph from West

Location: Ushuaia Aerodrome

Current Time: Apr 30, 2016 at 8:27:27 AM

Latest Report: Apr 30, 2016 at 8:00 AM


Visibility: N/A

Pressure: 29.71 "Hg

Humidity: 61%

Dew Point: 30 °F

Location of UshuaiaLocation

Historic Weather in Ushuaia — Graph

°F

Ushuaia Temperature Yesterday

Maximum temperature yesterday: 45 °F (at 5:00 PM)
Minimum temperature yesterday: 34 °F (at 7:00 AM)
Average temperature yesterday: 39 °F

High & Low Weather Summary for the Past Weeks

 TemperatureHumidityPressure
High48 °F (Apr 27, 7:00 AM)100% (Apr 15, 11:00 PM)30.39 "Hg (Apr 15, 11:00 PM)
Low25 °F (Apr 17, 1:00 AM)46% (Apr 30, 3:00 AM)28.97 "Hg (Apr 15, 7:00 AM)
Average37 °F78%29.72 "Hg
* Reported Apr 15 7:00 AM — Apr 30 7:00 AM, Ushuaia, Weather by CustomWeather, © 2016

Note: Actual official high and low records may vary slightly from our data, if they occured in-between our weather recording intervals... More about our weather records

Advertising

Ushuaia Weather History for the Previous 24 Hours

Scroll right to see more
 ConditionsComfort  
Time TempWeatherWind HumidityBarometerVisibility
7:00 AM
Sat, Apr 30
43 °FPassing clouds.30 mph53%29.71 "HgN/A
6:00 AM43 °FPassing clouds.32 mph49%29.71 "HgN/A
5:00 AM45 °FPassing clouds.26 mph49%29.71 "HgN/A
4:00 AM45 °FPassing clouds.14 mph46%29.74 "HgN/A
3:00 AM45 °FPassing clouds.9 mph46%29.77 "HgN/A
2:00 AM43 °FPassing clouds.5 mph53%29.80 "HgN/A
1:00 AM45 °FClear.5 mph49%29.83 "Hg10 mi
12:00 AM41 °FClear.No wind57%29.89 "Hg10 mi
11:00 PM
Fri, Apr 29
39 °FClear.No wind65%29.89 "Hg10 mi
10:00 PM39 °FClear.7 mph65%29.92 "Hg10 mi
9:00 PM39 °FClear.No wind65%29.95 "Hg10 mi
8:00 PM39 °FClear.No wind75%29.98 "Hg10 mi
7:00 PM39 °FClear.No wind75%30.01 "Hg10 mi
6:00 PM41 °FClear.5 mph76%30.01 "Hg10 mi
5:00 PM45 °FSunny.No wind61%30.04 "Hg10 mi
4:00 PM43 °FSunny.No wind61%30.07 "Hg10 mi
3:00 PM43 °FSunny.6 mph61%30.09 "Hg10 mi
2:00 PM41 °FSunny.No wind66%30.12 "Hg10 mi
1:00 PM41 °FSunny.No wind66%30.15 "Hg10 mi
12:00 PM39 °FSunny.3 mph61%30.15 "Hg10 mi
11:00 AM37 °FSunny.5 mph65%30.15 "Hg10 mi
10:00 AM34 °FSunny.5 mph81%30.18 "Hg10 mi
9:00 AM34 °FSunny.3 mph70%30.18 "Hg10 mi
8:00 AM34 °FSunny.3 mph81%30.21 "Hg10 mi
Weather by CustomWeather, © 2016

See weather overviewHow to use our weather pages